This is the latest recevied weather packets stored in our database for station/object N3FAA. If no packets are shown the sender has not sent any weather packets the latest 10 day(s).
| Time | Temp. | Humidity | Pressure | Rain* | Wind** | Luminosity | Snow |
|---|---|---|---|---|---|---|---|
| 1777600052 | 24.44° C | 32% | 1007.3 hPa | 0 mm | - | 48 W/m² | - |
| 1777599748 | 25° C | 32% | 1007.3 hPa | 0 mm | - | 66 W/m² | - |
| 1777599444 | 25° C | 32% | 1007.3 hPa | 0 mm | - | 84 W/m² | - |
| 1777599141 | 25° C | 32% | 1007.5 hPa | 0 mm | - | 98 W/m² | - |
| 1777598839 | 25° C | 32% | 1007.4 hPa | 0 mm | - | 118 W/m² | - |
| 1777598534 | 25.56° C | 31% | 1007.5 hPa | 0 mm | - | 131 W/m² | - |
| 1777598228 | 25.56° C | 32% | 1007.5 hPa | 0 mm | - | 140 W/m² | - |
| 1777597927 | 26.11° C | 30% | 1007.4 hPa | 0 mm | - | 167 W/m² | - |
| 1777597621 | 26.11° C | 30% | 1007.2 hPa | 0 mm | - | 185 W/m² | - |
| 1777597317 | 26.67° C | 29% | 1007.3 hPa | 0 mm | - | 200 W/m² | - |
| 1777597012 | 26.67° C | 28% | 1007.2 hPa | 0 mm | - | 224 W/m² | - |
| 1777596709 | 26.67° C | 28% | 1007.2 hPa | 0 mm | - | 246 W/m² | - |
| 1777596406 | 27.22° C | 28% | 1007.2 hPa | 0 mm | - | 282 W/m² | - |
| 1777596103 | 27.22° C | 28% | 1007 hPa | 0 mm | - | 301 W/m² | - |
| 1777595799 | 26.67° C | 28% | 1006.9 hPa | 0 mm | - | 314 W/m² | - |
| 1777595494 | 27.22° C | 28% | 1007.1 hPa | 0 mm | - | 333 W/m² | - |
| 1777595191 | 27.78° C | 27% | 1006.9 hPa | 0 mm | - | 348 W/m² | - |
| 1777594887 | 27.78° C | 26% | 1007.1 hPa | 0 mm | - | 373 W/m² | - |
| 1777594584 | 27.78° C | 25% | 1006.8 hPa | 0 mm | - | 379 W/m² | - |
| 1777594280 | 27.78° C | 22% | 1006.8 hPa | 0 mm | - | 401 W/m² | - |
| 1777593976 | 27.78° C | 22% | 1006.6 hPa | 0 mm | - | 423 W/m² | - |
| 1777593672 | 28.33° C | 22% | 1006.9 hPa | 0 mm | - | 419 W/m² | - |
| 1777593369 | 28.33° C | 23% | 1007.1 hPa | 0 mm | - | 393 W/m² | - |
| 1777593067 | 27.78° C | 22% | 1007.1 hPa | 0 mm | - | 422 W/m² | - |
| 1777592767 | 28.89° C | 22% | 1006.8 hPa | 0 mm | - | 452 W/m² | - |
* Rain latest hour (hover to see other rain measurements)
** Current wind speed in m/s (hover to see current wind gust speed)